Weather observations for the past three days for
Hoonah - Hoonah Seaplane Base
Metric (Imperial)
Date Time (akdt) Wind (kph) Vis. (km) Weather Sky Cond. Temperature (ºC) Relative Humidity Wind Chill (°C) Heat Index (°C) Pressure Precipitation (cm)
Air Dwpt 6 hour altimeter (cm) sea level (mb) 1 hr 3 hr 6 hr
Max. Min.
24 19:56 SE 6 16.09 Light Rain OVC036 8.3 6.7 90% 75.82 1010.7
24 18:56 Calm 16.09 Light Rain OVC036 8.9 6.1 83% 75.82 1010.9
24 17:56 NE 6 16.09 Light Rain BKN034 OVC049 8.3 5 80% 75.87 1011.5
24 16:56 E 13 16.09 Overcast SCT034 BKN044 OVC055 9.4 3.9 69% 8 75.9 1011.7
24 15:56 E 11 16.09 Overcast BKN033 OVC047 10.6 3.3 12.2 9.4 61% 75.92 1012.2
24 14:56 E 13 16.09 Overcast BKN044 OVC050 10 2.8 61% 8 75.95 1012.5
24 13:56 E 15 16.09 Overcast FEW037 OVC047 10.6 3.9 64% 75.97 1012.7
24 12:56 E 17 16.09 Overcast OVC044 10 3.9 66% 8 75.97 1012.9
24 11:56 Vrbl 6 16.09 Overcast OVC040 11.7 2.8 55% 75.97 1012.9
24 10:56 W 9 16.09 Overcast OVC038 9.4 2.8 64% 8 75.97 1013.0
24 09:56 W 11 16.09 Overcast BKN033 OVC044 9.4 3.3 11.1 1.1 66% 8 75.97 1012.9
24 08:56 W 6 16.09 Overcast OVC043 10.6 4.4 66% 75.97 1012.9
24 07:56 W 6 16.09 Mostly Cloudy BKN043 8.3 5 80% 75.97 1012.9
24 06:56 Calm 16.09 Overcast OVC043 3.9 3.9 100% 75.97 1012.9
24 05:56 Calm 16.09 Mostly Cloudy BKN043 1.7 1.1 96% 76 1013.3
24 04:56 E 6 1.21 Fog/Mist BKN002 OVC039 1.1 1.1 100% 75.97 1012.8
24 03:56 Calm 12.87 Mostly Cloudy BKN047 2.2 1.7 7.2 2.2 97% 75.97 1012.9
24 02:56 Calm 16.09 Overcast FEW001 OVC043 2.8 2.8 100% 75.97 1012.8
24 01:56 Calm 16.09 Overcast OVC044 3.3 2.8 97% 75.95 1012.6
24 00:56 Calm 16.09 Fair CLR 4.4 3.3 93% 75.95 1012.5
23 23:56 Vrbl 6 16.09 Overcast FEW039 BKN085 OVC110 5.6 5 96% 75.92 1012.3
23 22:56 Calm 16.09 Overcast FEW034 BKN065 OVC085 6.7 5.6 93% 75.95 1012.4
23 21:56 NW 6 16.09 Overcast OVC028 7.2 6.1 10 7.2 93% 75.92 1012.0
23 20:56 Calm 16.09 Light Rain BKN026 OVC035 7.8 6.7 93% 75.9 1011.7
23 19:56 W 6 16.09 Light Rain SCT012 OVC022 8.3 7.8 97% 75.84 0.0
23 18:56 Calm 14.48 Light Rain SCT012 BKN027 OVC034 8.9 7.8 93% 75.82 0.0
23 17:56 W 6 16.09 Light Rain BKN019 OVC025 8.9 7.8 93% 75.79 0.0
23 16:56 NW 6 8.05 Light Rain Fog/Mist FEW010 OVC016 9.4 7.8 90% 75.77 0.0
23 15:56 W 7 12.87 Light Rain SCT007 BKN013 OVC031 10 9.4 10.6 9.4 96% 9 75.74 0.0
23 14:56 E 6 4.83 Light Rain Fog/Mist OVC033 10 8.9 93% 75.74 0.0
23 13:56 E 11 14.48 Light Rain FEW014 BKN035 OVC041 10 8.9 93% 9 75.69 0.0
23 12:56 E 9 16.09 Overcast FEW014 OVC033 10 7.8 86% 9 75.67 0.0
23 11:56 N 6 16.09 Light Rain OVC005 10 8.3 89% 75.64 0.0
23 10:56 E 7 16.09 Light Rain FEW009 SCT017 OVC037 9.4 7.8 90% 9 75.64 0.0
23 09:56 E 7 16.09 Light Rain BKN009 OVC050 8.9 7.8 93% 8 75.64 0.0
23 08:56 E 6 16.09 Light Rain BKN013 OVC022 8.3 7.2 93% 75.64 0.0
23 07:56 Calm 16.09 Light Rain FEW005 BKN015 OVC023 7.8 7.2 96% 75.64 1008.3
23 06:56 Calm 4.83 Light Rain Fog/Mist OVC013 7.2 6.7 97% 75.64 1008.3
23 05:56 SW 6 8.05 Light Rain Fog/Mist OVC006 7.2 6.7 97% 75.64 1008.5
23 04:56 Calm 6.44 Rain Fog/Mist FEW008 BKN013 OVC036 7.2 6.1 93% 75.64 1008.6
23 03:56 Calm 9.66 Light Rain Fog/Mist SCT004 BKN020 OVC026 7.2 6.7 11.1 7.2 97% 75.69 1009.2
23 02:56 Calm 14.48 Light Rain BKN022 OVC027 7.8 6.7 93% 75.74 1009.9
23 01:56 Calm 16.09 Light Rain OVC035 7.8 6.1 89% 75.79 1010.6
23 00:56 N 6 16.09 Light Rain OVC035 8.9 5 77% 75.84 1011.2
22 23:56 E 9 16.09 Overcast OVC043 10 4.4 68% 9 75.87 1011.6
22 22:56 E 15 16.09 Overcast OVC055 11.1 3.3 59% 75.92 1012.3
22 21:56 Calm 16.09 Overcast OVC055 9.4 5 13.3 9.4 74% 75.97 1012.9
22 20:56 E 7 16.09 Overcast OVC055 11.1 5 66% 76.02 1013.5
22 19:56 Calm 16.09 Overcast OVC055 11.1 6.1 72% 76.05 1014.0
22 18:56 Calm 16.09 Overcast OVC060 12.2 6.7 69% 76.1 1014.5
22 17:56 Vrbl 6 16.09 Overcast OVC060 13.3 6.1 62% 76.12 1014.9
22 16:56 Calm 16.09 Overcast OVC060 12.2 6.1 67% 76.17 1015.6
22 15:56 W 9 16.09 Overcast OVC065 12.2 6.1 12.8 10 67% 76.23 1016.2
22 14:56 E 13 16.09 Overcast OVC070 11.7 5 64% 76.25 1016.5
22 13:56 E 13 16.09 Overcast OVC070 11.7 6.1 69% 76.28 1017.0
22 12:56 W 9 16.09 Overcast OVC075 11.7 6.1 69% 76.33 1017.7
22 11:56 Calm 3.22 Overcast with Haze OVC090 11.1 5.6 69% 76.35 1018.0
22 10:56 N 7 16.09 Mostly Cloudy BKN090 10 5.6 74% 9 76.38 1018.3
22 09:56 E 7 16.09 Partly Cloudy SCT100 10 5 10 0 71% 9 76.38 1018.4
22 08:56 Calm 16.09 Partly Cloudy SCT095 8.9 6.1 83% 76.43 1019.0
22 07:56 Calm 16.09 A Few Clouds FEW110 6.7 4.4 85% 76.48 1019.5
22 06:56 Calm 16.09 A Few Clouds FEW120 3.9 3.3 96% 76.48 1019.8
22 05:56 Calm 16.09 Fair CLR 1.7 1.7 100% 76.5 1020.1
22 04:56 Calm 16.09 Fair CLR 0.6 0 96% 76.53 1020.3
22 03:56 Calm 16.09 Fair CLR 0.6 0 6.1 0.6 96% 76.56 1020.7
22 02:56 Calm 16.09 Fair CLR 1.1 0.6 97% 76.61 1021.3
22 01:56 E 7 16.09 Fair CLR 1.7 1.1 96% -0 76.63 1021.7
22 00:56 Calm 16.09 Fair CLR 2.8 2.2 96% 76.66 1022.0
21 23:56 Calm 16.09 Fair CLR 3.3 2.8 97% 76.66 1021.9
21 22:56 Calm 16.09 Fair CLR 4.4 3.3 93% 76.66 1022.0
21 21:56 E 7 16.09 Fair CLR 6.1 3.9 15.6 6.1 86% 5 76.66 1022.1
21 20:56 Calm 16.09 Fair CLR 9.4 2.8 64% 76.66 1021.9
Date Time (akdt) Wind (kph) Vis. (km) Weather Sky Cond. Air Dwpt Max. Min. Relative Humidity Wind Chill (°C) Heat Index (°C) altimeter (cm) sea level (mb) 1 hr 3 hr 6 hr
6 hour
Temperature (ºC) Pressure Precipitation (cm)